This demonstration page uses our WeatherBlox Daily Observations layout. Learn more.

Left ArrowRight Arrow

Hourly Observations for January 11, 2020

Temp ( °F °C ) Dew Point ( °F °C ) Humidity (%) Winds ( mph kmh ) Pressure ( in mb ) Visibility ( mi km ) Precip ( " mm )
12:16 am 00:16 Cloudy 55 13 55 13 100 100 SSE 17 28 29.92 1013 10 16.0934 N/A
12:36 am 00:36 Cloudy 55 13 55 13 100 100 SSE 16 26 29.91 1013 10 16.0934 N/A
12:55 am 00:55 Cloudy 55 13 55 13 100 100 SSE 17 28 29.89 1012 10 16.0934 N/A
1:15 am 01:15 Cloudy 55 13 55 13 100 100 SSE 18 30 29.87 1012 10 16.0934 N/A
1:36 am 01:36 Cloudy 55 13 55 13 100 100 S 17 28 29.85 1011 10 16.0934 N/A
1:55 am 01:55 Cloudy 55 13 55 13 100 100 S 16 26 29.84 1011 10 16.0934 N/A
2:16 am 02:16 Cloudy 55 13 55 13 100 100 S 16 26 29.83 1010 10 16.0934 N/A
2:36 am 02:36 Cloudy 57 14 57 14 100 100 S 15 24 29.82 1010 10 16.0934 N/A
2:55 am 02:55 Cloudy 57 14 57 14 100 100 S 20 31 29.81 1009 10 16.0934 N/A
3:15 am 03:15 Cloudy 57 14 57 14 100 100 S 21 33 29.81 1009 10 16.0934 N/A
3:35 am 03:35 Cloudy 57 14 57 14 100 100 S 20 31 29.81 1009 10 16.0934 N/A
3:55 am 03:55 Cloudy 57 14 57 14 100 100 S 21 33 29.79 1009 10 16.0934 N/A
4:16 am 04:16 Cloudy 57 14 57 14 100 100 S 20 31 29.78 1008 10 16.0934 N/A
4:35 am 04:35 Cloudy 57 14 57 14 100 100 S 18 30 29.77 1008 10 16.0934 N/A
4:56 am 04:56 Cloudy 57 14 57 14 100 100 S 23 37 29.75 1007 10 16.0934 N/A
5:15 am 05:15 Cloudy 57 14 57 14 100 100 S 21 33 29.75 1007 10 16.0934 N/A
5:36 am 05:36 Cloudy 59 15 59 15 100 100 S 16 26 29.71 1006 10 16.0934 N/A
5:55 am 05:55 Cloudy 59 15 59 15 100 100 S 24 39 29.69 1006 10 16.0934 N/A
6:15 am 06:15 Cloudy 59 15 59 15 100 100 S 23 37 29.69 1006 10 16.0934 N/A
6:35 am 06:35 Cloudy 59 15 59 15 100 100 S 18 30 29.68 1005 10 16.0934 N/A
6:56 am 06:56 Cloudy 59 15 59 15 100 100 S 23 37 29.68 1005 10 16.0934 N/A
7:16 am 07:16 Cloudy 61 16 61 16 100 100 S 22 35 29.67 1005 10 16.0934 N/A
7:36 am 07:36 Cloudy 61 16 61 16 100 100 S 21 33 29.66 1004 10 16.0934 N/A
7:55 am 07:55 Cloudy 61 16 61 16 100 100 SSE 21 33 29.65 1004 10 16.0934 N/A
8:15 am 08:15 Cloudy 61 16 61 16 100 100 S 21 33 29.63 1003 10 16.0934 N/A
8:35 am 08:35 Cloudy 61 16 61 16 100 100 W 18 30 29.68 1005 10 16.0934 N/A
8:55 am 08:55 Cloudy 59 15 59 15 100 100 WSW 10 17 29.68 1005 1.25 2.011675 N/A
9:16 am 09:16 Cloudy 59 15 59 15 100 100 SW 7 11 29.68 1005 4 6.43736 N/A
9:36 am 09:36 Cloudy 57 14 57 14 100 100 SW 7 11 29.69 1005 3 4.82802 N/A
9:55 am 09:55 Cloudy 57 14 57 14 100 100 WSW 7 11 29.71 1006 2 3.21868 N/A
10:15 am 10:15 Cloudy 57 14 57 14 100 100 Calm 29.7 1006 1.25 2.011675 N/A
10:35 am 10:35 Cloudy 57 14 57 14 100 100 SSW 5 7 29.72 1006 1.5 2.41401 N/A
10:55 am 10:55 Cloudy 57 14 57 14 100 100 SE 5 7 29.7 1006 3 4.82802 N/A
11:15 am 11:15 Cloudy 57 14 57 14 100 100 S 3 6 29.7 1006 3 4.82802 N/A
11:35 am 11:35 Cloudy 57 14 57 14 100 100 S 6 9 29.7 1006 4 6.43736 N/A
11:55 am 11:55 Cloudy 57 14 57 14 100 100 S 9 15 29.69 1005 4 6.43736 N/A
12:15 pm 12:15 Cloudy 57 14 57 14 100 100 S 12 19 29.66 1004 7 11.26538 N/A
12:35 pm 12:35 Cloudy 57 14 57 14 100 100 S 10 17 29.64 1004 10 16.0934 N/A
12:56 pm 12:56 Cloudy 57 14 57 14 100 100 S 13 20 29.64 1004 10 16.0934 N/A
1:15 pm 13:15 Mostly Cloudy 57 14 57 14 100 100 S 9 15 29.63 1003 10 16.0934 N/A
1:35 pm 13:35 Mostly Cloudy 57 14 57 14 100 100 SSE 12 19 29.6 1002 10 16.0934 N/A
1:55 pm 13:55 Cloudy 57 14 57 14 100 100 S 15 24 29.65 1004 10 16.0934 N/A
2:15 pm 14:15 Cloudy 59 15 59 15 100 100 S 14 22 29.63 1004 10 16.0934 N/A
2:36 pm 14:36 Cloudy 59 15 59 15 100 100 SSW 17 28 29.65 1004 10 16.0934 N/A
2:56 pm 14:56 Cloudy 59 15 59 15 100 100 W 15 24 29.66 1005 10 16.0934 N/A
3:16 pm 15:16 Cloudy 46 8 46 8 100 100 WNW 20 31 29.7 1006 2 3.21868 N/A
3:36 pm 15:36 Cloudy 45 7 45 7 100 100 NW 15 24 29.68 1005 1.5 2.41401 N/A
3:55 pm 15:55 Cloudy 43 6 43 6 100 100 NW 9 15 29.71 1006 3 4.82802 N/A
4:16 pm 16:16 Cloudy 43 6 43 6 100 100 NNW 10 17 29.71 1006 2 3.21868 N/A
4:35 pm 16:35 Cloudy 41 5 41 5 100 100 NNW 8 13 29.72 1006 3 4.82802 N/A
4:55 pm 16:55 Cloudy 41 5 41 5 100 100 NW 9 15 29.72 1006 10 16.0934 N/A
5:15 pm 17:15 Cloudy 41 5 41 5 100 100 NNW 7 11 29.73 1007 3 4.82802 N/A
5:35 pm 17:35 Cloudy 41 5 41 5 100 100 NNW 7 11 29.72 1006 4 6.43736 N/A
5:55 pm 17:55 Cloudy 41 5 41 5 100 100 NNW 6 9 29.72 1006 10 16.0934 N/A
6:15 pm 18:15 Cloudy 41 5 41 5 100 100 NNW 5 7 29.71 1006 10 16.0934 N/A
6:35 pm 18:35 Cloudy 41 5 41 5 100 100 N 5 7 29.71 1006 10 16.0934 N/A
6:55 pm 18:55 Cloudy 41 5 41 5 100 100 N 3 6 29.7 1006 10 16.0934 N/A
7:16 pm 19:16 Cloudy 43 6 43 6 100 100 N 7 11 29.68 1005 4 6.43736 N/A
7:36 pm 19:36 Cloudy 41 5 41 5 100 100 N 5 7 29.68 1005 5 8.0467 N/A
7:56 pm 19:56 Cloudy 43 6 43 6 100 100 NNW 5 7 29.67 1005 4 6.43736 N/A
8:15 pm 20:15 Cloudy 41 5 41 5 100 100 NW 7 11 29.68 1005 2.5 4.02335 N/A
8:36 pm 20:36 Cloudy 41 5 41 5 100 100 WNW 14 22 29.7 1006 4 6.43736 N/A
8:55 pm 20:55 Cloudy 41 5 41 5 100 100 WNW 12 19 29.73 1007 4 6.43736 N/A
9:15 pm 21:15 Cloudy 39 4 39 4 100 100 WNW 13 20 29.72 1006 4 6.43736 N/A
9:35 pm 21:35 Cloudy 39 4 39 4 100 100 NW 14 22 29.73 1007 10 16.0934 N/A
9:55 pm 21:55 Cloudy 37 3 37 3 100 100 W 13 20 29.77 1008 10 16.0934 N/A
10:15 pm 22:15 Cloudy 37 3 37 3 100 100 WNW 13 20 29.77 1008 10 16.0934 N/A
10:36 pm 22:36 Cloudy 37 3 37 3 100 100 WNW 15 24 29.79 1009 10 16.0934 N/A
10:55 pm 22:55 Cloudy 37 3 37 3 100 100 W 13 20 29.82 1010 5 8.0467 N/A
11:16 pm 23:16 Cloudy 36 2 36 2 100 100 W 15 24 29.86 1011 2.5 4.02335 N/A
11:35 pm 23:35 Cloudy 36 2 36 2 100 100 W 15 24 29.89 1012 3 4.82802 N/A
11:55 pm 23:55 Cloudy 36 2 36 2 100 100 W 16 26 29.91 1013 3 4.82802 N/A

Powered by AerisWeather